TimeCDT,TemperatureF,Dew PointF,Humidity,Sea Level PressureIn,VisibilityMPH,Wind Direction,Wind SpeedMPH,Gust SpeedMPH,PrecipitationIn,Events,Conditions,WindDirDegrees,DateUTC
12:53 AM,48.0,45.0,89,30.06,10.0,ESE,3.5,-,N/A,,Clear,120,2013-07-21 05:53:00
1:53 AM,46.9,45.0,93,30.05,10.0,East,3.5,-,N/A,,Clear,90,2013-07-21 06:53:00
2:53 AM,45.0,43.0,93,30.04,10.0,Calm,Calm,-,N/A,,Clear,0,2013-07-21 07:53:00
3:53 AM,43.0,42.1,97,30.04,10.0,Calm,Calm,-,N/A,,Clear,0,2013-07-21 08:53:00
4:53 AM,42.1,41.0,96,30.04,10.0,Calm,Calm,-,N/A,,Clear,0,2013-07-21 09:53:00
5:53 AM,45.0,43.0,93,30.03,10.0,East,3.5,-,N/A,,Clear,80,2013-07-21 10:53:00
6:53 AM,48.0,46.0,93,30.04,10.0,Calm,Calm,-,N/A,,Partly Cloudy,0,2013-07-21 11:53:00
7:53 AM,54.0,50.0,86,30.04,10.0,ENE,3.5,-,N/A,,Overcast,70,2013-07-21 12:53:00
8:53 AM,60.1,53.1,78,30.04,10.0,ENE,3.5,-,N/A,,Mostly Cloudy,70,2013-07-21 13:53:00
9:53 AM,64.0,54.0,70,30.04,10.0,Calm,Calm,-,N/A,,Mostly Cloudy,0,2013-07-21 14:53:00
10:53 AM,66.0,55.9,70,30.03,10.0,NNE,5.8,-,N/A,,Mostly Cloudy,20,2013-07-21 15:53:00
11:53 AM,68.0,57.9,70,30.01,10.0,North,8.1,-,N/A,,Clear,10,2013-07-21 16:53:00
12:53 PM,68.0,57.9,70,29.99,10.0,NNE,11.5,-,N/A,,Clear,20,2013-07-21 17:53:00
1:53 PM,70.0,57.9,65,29.98,10.0,NNE,9.2,-,N/A,,Clear,30,2013-07-21 18:53:00
2:53 PM,69.1,55.9,63,29.96,10.0,NNE,13.8,-,N/A,,Clear,20,2013-07-21 19:53:00
3:53 PM,68.0,52.0,56,29.95,10.0,NE,12.7,-,N/A,,Clear,50,2013-07-21 20:53:00
4:53 PM,66.9,50.0,54,29.94,10.0,ENE,10.4,-,N/A,,Clear,60,2013-07-21 21:53:00
5:53 PM,64.9,48.9,56,29.94,10.0,NE,11.5,-,N/A,,Clear,50,2013-07-21 22:53:00
6:53 PM,62.1,50.0,65,29.93,10.0,NE,9.2,-,N/A,,Clear,40,2013-07-21 23:53:00
7:53 PM,60.1,50.0,69,29.92,10.0,NE,6.9,-,N/A,,Clear,50,2013-07-22 00:53:00
8:53 PM,55.9,52.0,87,29.91,10.0,Calm,Calm,-,N/A,,Scattered Clouds,0,2013-07-22 01:53:00
9:53 PM,53.1,51.1,93,29.92,10.0,Calm,Calm,-,N/A,,Clear,0,2013-07-22 02:53:00
10:53 PM,52.0,50.0,93,29.89,10.0,Calm,Calm,-,N/A,,Clear,0,2013-07-22 03:53:00
11:53 PM,51.1,50.0,96,29.88,10.0,Calm,Calm,-,N/A,,Clear,0,2013-07-22 04:53:00